Year,Month,Day,Hour,Minute,Value (Times are PST for temperature in C)
2015,04,15,00,00,3.60
2015,04,15,00,01,3.60
2015,04,15,00,02,3.60
2015,04,15,00,03,3.60
2015,04,15,00,04,3.60
2015,04,15,00,05,3.60
2015,04,15,00,06,3.60
2015,04,15,00,07,3.60
2015,04,15,00,08,3.60
2015,04,15,00,09,3.60
2015,04,15,00,10,3.60
2015,04,15,00,11,3.60
2015,04,15,00,12,3.60
2015,04,15,00,13,3.60
2015,04,15,00,14,3.60
2015,04,15,00,15,3.60
2015,04,15,00,16,3.60
2015,04,15,00,17,3.60
2015,04,15,00,18,3.50
2015,04,15,00,19,3.50
2015,04,15,00,20,3.50
2015,04,15,00,21,3.50
2015,04,15,00,22,3.40
2015,04,15,00,23,3.40
2015,04,15,00,24,3.40
2015,04,15,00,25,3.40
2015,04,15,00,26,3.40
2015,04,15,00,27,3.40
2015,04,15,00,28,3.40
2015,04,15,00,29,3.40
2015,04,15,00,30,3.40
2015,04,15,00,31,3.40
2015,04,15,00,32,3.30
2015,04,15,00,33,3.30
2015,04,15,00,34,3.30
2015,04,15,00,35,3.30
2015,04,15,00,36,3.30
2015,04,15,00,37,3.30
2015,04,15,00,38,3.30
2015,04,15,00,39,3.30
2015,04,15,00,40,3.30
2015,04,15,00,41,3.30
2015,04,15,00,42,3.30
2015,04,15,00,43,3.20
2015,04,15,00,44,3.20
2015,04,15,00,45,3.20
2015,04,15,00,46,3.20
2015,04,15,00,47,3.20
2015,04,15,00,48,3.30
2015,04,15,00,49,3.30
2015,04,15,00,50,3.30
2015,04,15,00,51,3.40
2015,04,15,00,52,3.40
2015,04,15,00,53,3.40
2015,04,15,00,54,3.40
2015,04,15,00,55,3.50
2015,04,15,00,56,3.60
2015,04,15,00,57,3.60
2015,04,15,00,58,3.60
2015,04,15,00,59,3.60
2015,04,15,01,00,3.60
2015,04,15,01,01,3.60
2015,04,15,01,02,3.60
2015,04,15,01,03,3.60
2015,04,15,01,04,3.50
2015,04,15,01,05,3.50
2015,04,15,01,06,3.50
2015,04,15,01,07,3.40
2015,04,15,01,08,3.40
2015,04,15,01,09,3.40
2015,04,15,01,10,3.40
2015,04,15,01,11,3.40
2015,04,15,01,12,3.30
2015,04,15,01,13,3.30
2015,04,15,01,14,3.30
2015,04,15,01,15,3.30
2015,04,15,01,16,3.30
2015,04,15,01,17,3.30
2015,04,15,01,18,3.30
2015,04,15,01,19,3.30
2015,04,15,01,20,3.30
2015,04,15,01,21,3.30
2015,04,15,01,22,3.30
2015,04,15,01,23,3.30
2015,04,15,01,24,3.30
2015,04,15,01,25,3.30
2015,04,15,01,26,3.30
2015,04,15,01,27,3.30
2015,04,15,01,28,3.30
2015,04,15,01,29,3.30
2015,04,15,01,30,3.30
2015,04,15,01,31,3.30
2015,04,15,01,32,3.30
2015,04,15,01,33,3.30
2015,04,15,01,34,3.20
2015,04,15,01,35,3.20
2015,04,15,01,36,3.20
2015,04,15,01,37,3.20
2015,04,15,01,38,3.10
2015,04,15,01,39,3.10
2015,04,15,01,40,3.00
2015,04,15,01,41,3.00
2015,04,15,01,42,2.90
2015,04,15,01,43,2.90
2015,04,15,01,44,2.90
2015,04,15,01,45,2.80
2015,04,15,01,46,2.80
2015,04,15,01,47,2.80
2015,04,15,01,48,2.80
2015,04,15,01,49,2.70
2015,04,15,01,50,2.70
2015,04,15,01,51,2.70
2015,04,15,01,52,2.70
2015,04,15,01,53,2.60
2015,04,15,01,54,2.60
2015,04,15,01,55,2.60
2015,04,15,01,56,2.60
2015,04,15,01,57,2.60
2015,04,15,01,58,2.60
2015,04,15,01,59,2.50
2015,04,15,02,00,2.50
2015,04,15,02,01,2.50
2015,04,15,02,02,2.40
2015,04,15,02,03,2.40
2015,04,15,02,04,2.40
2015,04,15,02,05,2.40
2015,04,15,02,06,2.40
2015,04,15,02,07,2.30
2015,04,15,02,08,2.30
2015,04,15,02,09,2.30
2015,04,15,02,10,2.30
2015,04,15,02,11,2.30
2015,04,15,02,12,2.30
2015,04,15,02,13,2.30
2015,04,15,02,14,2.30
2015,04,15,02,15,2.30
2015,04,15,02,16,2.30
2015,04,15,02,17,2.30
2015,04,15,02,18,2.30
2015,04,15,02,19,2.30
2015,04,15,02,20,2.30
2015,04,15,02,21,2.30
2015,04,15,02,22,2.30
2015,04,15,02,23,2.30
2015,04,15,02,24,2.30
2015,04,15,02,25,2.30
2015,04,15,02,26,2.30
2015,04,15,02,27,2.30
2015,04,15,02,28,2.40
2015,04,15,02,29,2.40
2015,04,15,02,30,2.40
2015,04,15,02,31,2.40
2015,04,15,02,32,2.40
2015,04,15,02,33,2.40
2015,04,15,02,34,2.40
2015,04,15,02,35,2.40
2015,04,15,02,36,2.40
2015,04,15,02,37,2.40
2015,04,15,02,38,2.50
2015,04,15,02,39,2.50
2015,04,15,02,40,2.50
2015,04,15,02,41,2.50
2015,04,15,02,42,2.50
2015,04,15,02,43,2.50
2015,04,15,02,44,2.50
2015,04,15,02,45,2.50
2015,04,15,02,46,2.50
2015,04,15,02,47,2.50
2015,04,15,02,48,2.50
2015,04,15,02,49,2.50
2015,04,15,02,50,2.50
2015,04,15,02,51,2.50
2015,04,15,02,52,2.50
2015,04,15,02,53,2.50
2015,04,15,02,54,2.50
2015,04,15,02,55,2.50
2015,04,15,02,56,2.50
2015,04,15,02,57,2.50
2015,04,15,02,58,2.50
2015,04,15,02,59,2.50
2015,04,15,03,00,2.50
2015,04,15,03,01,2.50
2015,04,15,03,02,2.50
2015,04,15,03,03,2.50
2015,04,15,03,04,2.50
2015,04,15,03,05,2.50
2015,04,15,03,06,2.50
2015,04,15,03,07,2.50
2015,04,15,03,08,2.50
2015,04,15,03,09,2.50
2015,04,15,03,10,2.50
2015,04,15,03,11,2.50
2015,04,15,03,12,2.50
2015,04,15,03,13,2.50
2015,04,15,03,14,2.50
2015,04,15,03,15,2.50
2015,04,15,03,16,2.50
2015,04,15,03,17,2.50
2015,04,15,03,18,2.60
2015,04,15,03,19,2.60
2015,04,15,03,20,2.60
2015,04,15,03,21,2.60
2015,04,15,03,22,2.60
2015,04,15,03,23,2.60
2015,04,15,03,24,2.70
2015,04,15,03,25,2.70
2015,04,15,03,26,2.70
2015,04,15,03,27,2.70
2015,04,15,03,28,2.70
2015,04,15,03,29,2.70
2015,04,15,03,30,2.70
2015,04,15,03,31,2.70
2015,04,15,03,32,2.70
2015,04,15,03,33,2.70
2015,04,15,03,34,2.70
2015,04,15,03,35,2.70
2015,04,15,03,36,2.80
2015,04,15,03,37,2.80
2015,04,15,03,38,2.80
2015,04,15,03,39,2.80
2015,04,15,03,40,2.80
2015,04,15,03,41,2.80
2015,04,15,03,42,2.80
2015,04,15,03,43,2.80
2015,04,15,03,44,2.80
2015,04,15,03,45,2.80
2015,04,15,03,46,2.80
2015,04,15,03,47,2.80
2015,04,15,03,48,2.80
2015,04,15,03,49,2.80
2015,04,15,03,50,2.80
2015,04,15,03,51,2.80
2015,04,15,03,52,2.80
2015,04,15,03,53,2.80
2015,04,15,03,54,2.80
2015,04,15,03,55,2.80
2015,04,15,03,56,2.80
2015,04,15,03,57,2.80
2015,04,15,03,58,2.80
2015,04,15,03,59,2.80
2015,04,15,04,00,2.80
2015,04,15,04,01,2.80
2015,04,15,04,02,2.80
2015,04,15,04,03,2.80
2015,04,15,04,04,2.80
2015,04,15,04,05,2.80
2015,04,15,04,06,2.80
2015,04,15,04,07,2.80
2015,04,15,04,08,2.80
2015,04,15,04,09,2.80
2015,04,15,04,10,2.80
2015,04,15,04,11,2.80
2015,04,15,04,12,2.80
2015,04,15,04,13,2.80
2015,04,15,04,14,2.80
2015,04,15,04,15,2.80
2015,04,15,04,16,2.80
2015,04,15,04,17,2.80
2015,04,15,04,18,2.80
2015,04,15,04,19,2.80
2015,04,15,04,20,2.80
2015,04,15,04,21,2.80
2015,04,15,04,22,2.80
2015,04,15,04,23,2.80
2015,04,15,04,24,2.80
2015,04,15,04,25,2.80
2015,04,15,04,26,2.70
2015,04,15,04,27,2.70
2015,04,15,04,28,2.70
2015,04,15,04,29,2.70
2015,04,15,04,30,2.70
2015,04,15,04,31,2.60
2015,04,15,04,32,2.60
2015,04,15,04,33,2.60
2015,04,15,04,34,2.60
2015,04,15,04,35,2.50
2015,04,15,04,36,2.50
2015,04,15,04,37,2.50
2015,04,15,04,38,2.50
2015,04,15,04,39,2.40
2015,04,15,04,40,2.40
2015,04,15,04,41,2.40
2015,04,15,04,42,2.40
2015,04,15,04,43,2.40
2015,04,15,04,44,2.40
2015,04,15,04,45,2.30
2015,04,15,04,46,2.30
2015,04,15,04,47,2.30
2015,04,15,04,48,2.30
2015,04,15,04,49,2.30
2015,04,15,04,50,2.30
2015,04,15,04,51,2.30
2015,04,15,04,52,2.30
2015,04,15,04,53,2.30
2015,04,15,04,54,2.20
2015,04,15,04,55,2.20
2015,04,15,04,56,2.20
2015,04,15,04,57,2.20
2015,04,15,04,58,2.20
2015,04,15,04,59,2.20
2015,04,15,05,00,2.20
2015,04,15,05,01,2.20
2015,04,15,05,02,2.20
2015,04,15,05,03,2.20
2015,04,15,05,04,2.20
2015,04,15,05,05,2.20
2015,04,15,05,06,2.20
2015,04,15,05,07,2.20
2015,04,15,05,08,2.20
2015,04,15,05,09,2.20
2015,04,15,05,10,2.20
2015,04,15,05,11,2.20
2015,04,15,05,12,2.20
2015,04,15,05,13,2.20
2015,04,15,05,14,2.20
2015,04,15,05,15,2.20
2015,04,15,05,16,2.20
2015,04,15,05,17,2.20
2015,04,15,05,18,2.20
2015,04,15,05,19,2.20
2015,04,15,05,20,2.20
2015,04,15,05,21,2.20
2015,04,15,05,22,2.20
2015,04,15,05,23,2.20
2015,04,15,05,24,2.20
2015,04,15,05,25,2.20
2015,04,15,05,26,2.20
2015,04,15,05,27,2.20
2015,04,15,05,28,2.20
2015,04,15,05,29,2.20
2015,04,15,05,30,2.20
2015,04,15,05,31,2.20
2015,04,15,05,32,2.20
2015,04,15,05,33,2.20
2015,04,15,05,34,2.20
2015,04,15,05,35,2.20
2015,04,15,05,36,2.20
2015,04,15,05,37,2.20
2015,04,15,05,38,2.20
2015,04,15,05,39,2.20
2015,04,15,05,40,2.10
2015,04,15,05,41,2.10
2015,04,15,05,42,2.10
2015,04,15,05,43,2.10
2015,04,15,05,44,2.10
2015,04,15,05,45,2.10
2015,04,15,05,46,2.10
2015,04,15,05,47,2.10
2015,04,15,05,48,2.10
2015,04,15,05,49,2.10
2015,04,15,05,50,2.10
2015,04,15,05,51,2.10
2015,04,15,05,52,2.00
2015,04,15,05,53,2.00
2015,04,15,05,54,2.00
2015,04,15,05,55,2.00
2015,04,15,05,56,2.00
2015,04,15,05,57,2.00
2015,04,15,05,58,2.00
2015,04,15,05,59,2.00
2015,04,15,06,00,1.90
2015,04,15,06,01,1.90
2015,04,15,06,02,1.90
2015,04,15,06,03,1.90
2015,04,15,06,04,2.00
2015,04,15,06,05,2.00
2015,04,15,06,06,2.00
2015,04,15,06,07,2.00
2015,04,15,06,08,2.00
2015,04,15,06,09,2.00
2015,04,15,06,10,2.00
2015,04,15,06,11,2.00
2015,04,15,06,12,2.00
2015,04,15,06,13,2.00
2015,04,15,06,14,2.00
2015,04,15,06,15,2.00
2015,04,15,06,16,2.10
2015,04,15,06,17,2.10
2015,04,15,06,18,2.10
2015,04,15,06,19,2.10
2015,04,15,06,20,2.10
2015,04,15,06,21,2.10
2015,04,15,06,22,2.10
2015,04,15,06,23,2.10
2015,04,15,06,24,2.10
2015,04,15,06,25,2.10
2015,04,15,06,26,2.00
2015,04,15,06,27,2.00
2015,04,15,06,28,2.00
2015,04,15,06,29,2.00
2015,04,15,06,30,2.00
2015,04,15,06,31,2.00
2015,04,15,06,32,2.00
2015,04,15,06,33,2.00
2015,04,15,06,34,2.00
2015,04,15,06,35,2.00
2015,04,15,06,36,2.00
2015,04,15,06,37,2.00
2015,04,15,06,38,2.00
2015,04,15,06,39,2.00
2015,04,15,06,40,2.00
2015,04,15,06,41,2.00
2015,04,15,06,42,2.00
2015,04,15,06,43,2.00
2015,04,15,06,44,2.00
2015,04,15,06,45,2.00
2015,04,15,06,46,2.00
2015,04,15,06,47,2.00
2015,04,15,06,48,2.00
2015,04,15,06,49,2.00
2015,04,15,06,50,2.00
2015,04,15,06,51,2.00
2015,04,15,06,52,2.00
2015,04,15,06,53,2.00
2015,04,15,06,54,2.10
2015,04,15,06,55,2.10
2015,04,15,06,56,2.10
2015,04,15,06,57,2.10
2015,04,15,06,58,2.10
2015,04,15,06,59,2.10
2015,04,15,07,00,2.20
2015,04,15,07,01,2.20
2015,04,15,07,02,2.20
2015,04,15,07,03,2.20
2015,04,15,07,04,2.30
2015,04,15,07,05,2.30
2015,04,15,07,06,2.30
2015,04,15,07,07,2.40
2015,04,15,07,08,2.40
2015,04,15,07,09,2.40
2015,04,15,07,10,2.50
2015,04,15,07,11,2.50
2015,04,15,07,12,2.60
2015,04,15,07,13,2.60
2015,04,15,07,14,2.60
2015,04,15,07,15,2.70
2015,04,15,07,16,2.70
2015,04,15,07,17,2.80
2015,04,15,07,18,2.80
2015,04,15,07,19,2.80
2015,04,15,07,20,2.90
2015,04,15,07,21,2.90
2015,04,15,07,22,3.00
2015,04,15,07,23,3.00
2015,04,15,07,24,3.10
2015,04,15,07,25,3.10
2015,04,15,07,26,3.20
2015,04,15,07,27,3.20
2015,04,15,07,28,3.30
2015,04,15,07,29,3.40
2015,04,15,07,30,3.40
2015,04,15,07,31,3.50
2015,04,15,07,32,3.50
2015,04,15,07,33,3.60
2015,04,15,07,34,3.70
2015,04,15,07,35,3.70
2015,04,15,07,36,3.80
2015,04,15,07,37,3.90
2015,04,15,07,38,4.00
2015,04,15,07,39,4.10
2015,04,15,07,40,4.20
2015,04,15,07,41,4.30
2015,04,15,07,42,4.40
2015,04,15,07,43,4.50
2015,04,15,07,44,4.60
2015,04,15,07,45,4.70
2015,04,15,07,46,4.80
2015,04,15,07,47,4.90
2015,04,15,07,48,5.00
2015,04,15,07,49,5.10
2015,04,15,07,50,5.20
2015,04,15,07,51,5.30
2015,04,15,07,52,5.40
2015,04,15,07,53,5.50
2015,04,15,07,54,5.60
2015,04,15,07,55,5.70
2015,04,15,07,56,5.80
2015,04,15,07,57,5.90
2015,04,15,07,58,6.00
2015,04,15,07,59,6.00
2015,04,15,08,00,6.20
2015,04,15,08,01,6.20
2015,04,15,08,02,6.30
2015,04,15,08,03,6.40
2015,04,15,08,04,6.50
2015,04,15,08,05,6.60
2015,04,15,08,06,6.70
2015,04,15,08,07,6.70
2015,04,15,08,08,6.80
2015,04,15,08,09,6.90
2015,04,15,08,10,6.90
2015,04,15,08,11,7.00
2015,04,15,08,12,7.10
2015,04,15,08,13,7.20
2015,04,15,08,14,7.20
2015,04,15,08,15,7.30
2015,04,15,08,16,7.40
2015,04,15,08,17,7.50
2015,04,15,08,18,7.60
2015,04,15,08,19,7.60
2015,04,15,08,20,7.70
2015,04,15,08,21,7.80
2015,04,15,08,22,7.80
2015,04,15,08,23,7.90
2015,04,15,08,24,8.00
2015,04,15,08,25,8.10
2015,04,15,08,26,8.10
2015,04,15,08,27,8.20
2015,04,15,08,28,8.30
2015,04,15,08,29,8.30
2015,04,15,08,30,8.40
2015,04,15,08,31,8.40
2015,04,15,08,32,8.50
2015,04,15,08,33,8.50
2015,04,15,08,34,8.60
2015,04,15,08,35,8.60
2015,04,15,08,36,8.60
2015,04,15,08,37,8.70
2015,04,15,08,38,8.70
2015,04,15,08,39,8.80
2015,04,15,08,40,8.80
2015,04,15,08,41,8.80
2015,04,15,08,42,8.90
2015,04,15,08,43,8.90
2015,04,15,08,44,8.90
2015,04,15,08,45,9.00
2015,04,15,08,46,9.00
2015,04,15,08,47,9.10
2015,04,15,08,48,9.20
2015,04,15,08,49,9.20
2015,04,15,08,50,9.30
2015,04,15,08,51,9.30
2015,04,15,08,52,9.40
2015,04,15,08,53,9.50
2015,04,15,08,54,9.60
2015,04,15,08,55,9.60
2015,04,15,08,56,9.60
2015,04,15,08,57,9.70
2015,04,15,08,58,9.70
2015,04,15,08,59,9.70
2015,04,15,09,00,9.70
2015,04,15,09,01,9.80
2015,04,15,09,02,9.80
2015,04,15,09,03,9.80
2015,04,15,09,04,9.90
2015,04,15,09,05,9.90
2015,04,15,09,06,9.90
2015,04,15,09,07,9.90
2015,04,15,09,08,9.90
2015,04,15,09,09,9.90
2015,04,15,09,10,9.90
2015,04,15,09,11,9.90
2015,04,15,09,12,9.80
2015,04,15,09,13,9.80
2015,04,15,09,14,9.80
2015,04,15,09,15,9.80
2015,04,15,09,16,9.80
2015,04,15,09,17,9.80
2015,04,15,09,18,9.80
2015,04,15,09,19,9.80
2015,04,15,09,20,9.80
2015,04,15,09,21,9.80
2015,04,15,09,22,9.80
2015,04,15,09,23,9.80
2015,04,15,09,24,9.90
2015,04,15,09,25,9.90
2015,04,15,09,26,9.90
2015,04,15,09,27,9.90
2015,04,15,09,28,9.90
2015,04,15,09,29,9.90
2015,04,15,09,30,9.90
2015,04,15,09,31,9.90
2015,04,15,09,32,10.00
2015,04,15,09,33,10.00
2015,04,15,09,34,10.10
2015,04,15,09,35,10.10
2015,04,15,09,36,10.20
2015,04,15,09,37,10.20
2015,04,15,09,38,10.20
2015,04,15,09,39,10.30
2015,04,15,09,40,10.30
2015,04,15,09,41,10.30
2015,04,15,09,42,10.30
2015,04,15,09,43,10.30
2015,04,15,09,44,10.40
2015,04,15,09,45,10.40
2015,04,15,09,46,10.40
2015,04,15,09,47,10.40
2015,04,15,09,48,10.40
2015,04,15,09,49,10.50
2015,04,15,09,50,10.60
2015,04,15,09,51,10.60
2015,04,15,09,52,10.60
2015,04,15,09,53,10.70
2015,04,15,09,54,10.70
2015,04,15,09,55,10.70
2015,04,15,09,56,10.70
2015,04,15,09,57,10.70
2015,04,15,09,58,10.70
2015,04,15,09,59,10.70
2015,04,15,10,00,10.70
2015,04,15,10,01,10.70
2015,04,15,10,02,10.70
2015,04,15,10,03,10.70
2015,04,15,10,04,10.70
2015,04,15,10,05,10.70
2015,04,15,10,06,10.70
2015,04,15,10,07,10.70
2015,04,15,10,08,10.70
2015,04,15,10,09,10.70
2015,04,15,10,10,10.80
2015,04,15,10,11,10.80
2015,04,15,10,12,10.80
2015,04,15,10,13,10.80
2015,04,15,10,14,10.80
2015,04,15,10,15,10.90
2015,04,15,10,16,10.90
2015,04,15,10,17,11.00
2015,04,15,10,18,11.00
2015,04,15,10,19,11.10
2015,04,15,10,20,11.10
2015,04,15,10,21,11.10
2015,04,15,10,22,11.20
2015,04,15,10,23,11.20
2015,04,15,10,24,11.20
2015,04,15,10,25,11.10
2015,04,15,10,26,11.10
2015,04,15,10,27,11.10
2015,04,15,10,28,11.10
2015,04,15,10,29,11.20
2015,04,15,10,30,11.10
2015,04,15,10,31,11.20
2015,04,15,10,32,11.10
2015,04,15,10,33,11.10
2015,04,15,10,34,11.10
2015,04,15,10,35,11.10
2015,04,15,10,36,11.10
2015,04,15,10,37,11.00
2015,04,15,10,38,11.00
2015,04,15,10,39,11.00
2015,04,15,10,40,10.90
2015,04,15,10,41,10.90
2015,04,15,10,42,10.90
2015,04,15,10,43,10.80
2015,04,15,10,44,10.80
2015,04,15,10,45,10.80
2015,04,15,10,46,10.80
2015,04,15,10,47,10.80
2015,04,15,10,48,10.80
2015,04,15,10,49,10.80
2015,04,15,10,50,10.80
2015,04,15,10,51,10.80
2015,04,15,10,52,10.80
2015,04,15,10,53,10.80
2015,04,15,10,54,10.80
2015,04,15,10,55,10.80
2015,04,15,10,56,10.80
2015,04,15,10,57,10.80
2015,04,15,10,58,10.70
2015,04,15,10,59,10.70
2015,04,15,11,00,10.70
2015,04,15,11,01,10.70
2015,04,15,11,02,10.70
2015,04,15,11,03,10.70
2015,04,15,11,04,10.70
2015,04,15,11,05,10.70
2015,04,15,11,06,10.60
2015,04,15,11,07,10.60
2015,04,15,11,08,10.60
2015,04,15,11,09,10.70
2015,04,15,11,10,10.70
2015,04,15,11,11,10.70
2015,04,15,11,12,10.70
2015,04,15,11,13,10.70
2015,04,15,11,14,10.80
2015,04,15,11,15,10.80
2015,04,15,11,16,10.90
2015,04,15,11,17,10.90
2015,04,15,11,18,11.00
2015,04,15,11,19,11.00
2015,04,15,11,20,11.10
2015,04,15,11,21,11.10
2015,04,15,11,22,11.10
2015,04,15,11,23,11.10
2015,04,15,11,24,11.10
2015,04,15,11,25,11.20
2015,04,15,11,26,11.20
2015,04,15,11,27,11.30
2015,04,15,11,28,11.20
2015,04,15,11,29,11.20
2015,04,15,11,30,11.20
2015,04,15,11,31,11.20
2015,04,15,11,32,11.10
2015,04,15,11,33,11.10
2015,04,15,11,34,11.00
2015,04,15,11,35,11.00
2015,04,15,11,36,11.00
2015,04,15,11,37,11.10
2015,04,15,11,38,11.10
2015,04,15,11,39,11.10
2015,04,15,11,40,11.10
2015,04,15,11,41,11.10
2015,04,15,11,42,11.20
2015,04,15,11,43,11.20
2015,04,15,11,44,11.10
2015,04,15,11,45,11.10
2015,04,15,11,46,11.00
2015,04,15,11,47,10.90
2015,04,15,11,48,10.90
2015,04,15,11,49,10.90
2015,04,15,11,50,10.90
2015,04,15,11,51,10.90
2015,04,15,11,52,10.90
2015,04,15,11,53,10.80
2015,04,15,11,54,10.80
2015,04,15,11,55,10.80
2015,04,15,11,56,10.80
2015,04,15,11,57,10.80
2015,04,15,11,58,10.80
2015,04,15,11,59,10.80
2015,04,15,12,00,10.80
2015,04,15,12,01,10.80
2015,04,15,12,02,10.80
2015,04,15,12,03,10.80
2015,04,15,12,04,10.80
2015,04,15,12,05,10.70
2015,04,15,12,06,10.80
2015,04,15,12,07,10.80
2015,04,15,12,08,10.80
2015,04,15,12,09,10.90
2015,04,15,12,10,10.90
2015,04,15,12,11,11.00
2015,04,15,12,12,11.00
2015,04,15,12,13,11.10
2015,04,15,12,14,11.20
2015,04,15,12,15,11.20
2015,04,15,12,16,11.20
2015,04,15,12,17,11.20
2015,04,15,12,18,11.20
2015,04,15,12,19,11.20
2015,04,15,12,20,11.20
2015,04,15,12,21,11.20
2015,04,15,12,22,11.30
2015,04,15,12,23,11.20
2015,04,15,12,24,11.10
2015,04,15,12,25,11.10
2015,04,15,12,26,11.10
2015,04,15,12,27,11.00
2015,04,15,12,28,10.90
2015,04,15,12,29,10.80
2015,04,15,12,30,10.80
2015,04,15,12,31,10.70
2015,04,15,12,32,10.70
2015,04,15,12,33,10.70
2015,04,15,12,34,10.60
2015,04,15,12,35,10.50
2015,04,15,12,36,10.50
2015,04,15,12,37,10.40
2015,04,15,12,38,10.40
2015,04,15,12,39,10.40
2015,04,15,12,40,10.30
2015,04,15,12,41,10.30
2015,04,15,12,42,10.30
2015,04,15,12,43,10.30
2015,04,15,12,44,10.30
2015,04,15,12,45,10.30
2015,04,15,12,46,10.30
2015,04,15,12,47,10.30
2015,04,15,12,48,10.30
2015,04,15,12,49,10.30
2015,04,15,12,50,10.30
2015,04,15,12,51,10.30
2015,04,15,12,52,10.40
2015,04,15,12,53,10.50
2015,04,15,12,54,10.50
2015,04,15,12,55,10.60
2015,04,15,12,56,10.70
2015,04,15,12,57,10.70
2015,04,15,12,58,10.80
2015,04,15,12,59,10.80
2015,04,15,13,00,10.80
2015,04,15,13,01,10.80
2015,04,15,13,02,10.80
2015,04,15,13,03,10.90
2015,04,15,13,04,10.90
2015,04,15,13,05,10.90
2015,04,15,13,06,10.90
2015,04,15,13,07,10.90
2015,04,15,13,08,10.90
2015,04,15,13,09,10.90
2015,04,15,13,10,10.90
2015,04,15,13,11,10.90
2015,04,15,13,12,10.90
2015,04,15,13,13,11.00
2015,04,15,13,14,11.00
2015,04,15,13,15,11.00
2015,04,15,13,16,11.00
2015,04,15,13,17,11.10
2015,04,15,13,18,11.10
2015,04,15,13,19,11.10
2015,04,15,13,20,11.10
2015,04,15,13,21,11.10
2015,04,15,13,22,11.10
2015,04,15,13,23,11.00
2015,04,15,13,24,11.00
2015,04,15,13,25,10.90
2015,04,15,13,26,10.90
2015,04,15,13,27,10.90
2015,04,15,13,28,10.90
2015,04,15,13,29,10.90
2015,04,15,13,30,10.80
2015,04,15,13,31,10.80
2015,04,15,13,32,10.80
2015,04,15,13,33,10.80
2015,04,15,13,34,10.90
2015,04,15,13,35,10.90
2015,04,15,13,36,10.90
2015,04,15,13,37,10.90
2015,04,15,13,38,10.90
2015,04,15,13,39,10.90
2015,04,15,13,40,10.90
2015,04,15,13,41,10.90
2015,04,15,13,42,10.90
2015,04,15,13,43,10.90
2015,04,15,13,44,10.90
2015,04,15,13,45,10.90
2015,04,15,13,46,10.90
2015,04,15,13,47,10.90
2015,04,15,13,48,10.90
2015,04,15,13,49,10.90
2015,04,15,13,50,10.90
2015,04,15,13,51,10.90
2015,04,15,13,52,10.90
2015,04,15,13,53,10.90
2015,04,15,13,54,10.90
2015,04,15,13,55,10.90
2015,04,15,13,56,11.00
2015,04,15,13,57,11.00
2015,04,15,13,58,11.00
2015,04,15,13,59,11.10
2015,04,15,14,00,11.10
2015,04,15,14,01,11.10
2015,04,15,14,02,11.20
2015,04,15,14,03,11.20
2015,04,15,14,04,11.20
2015,04,15,14,05,11.20
2015,04,15,14,06,11.20
2015,04,15,14,07,11.20
2015,04,15,14,08,11.20
2015,04,15,14,09,11.20
2015,04,15,14,10,11.20
2015,04,15,14,11,11.20
2015,04,15,14,12,11.30
2015,04,15,14,13,11.30
2015,04,15,14,14,11.30
2015,04,15,14,15,11.40
2015,04,15,14,16,11.40
2015,04,15,14,17,11.40
2015,04,15,14,18,11.40
2015,04,15,14,19,11.40
2015,04,15,14,20,11.40
2015,04,15,14,21,11.40
2015,04,15,14,22,11.40
2015,04,15,14,23,11.40
2015,04,15,14,24,11.50
2015,04,15,14,25,11.50
2015,04,15,14,26,11.50
2015,04,15,14,27,11.60
2015,04,15,14,28,11.60
2015,04,15,14,29,11.60
2015,04,15,14,30,11.60
2015,04,15,14,31,11.60
2015,04,15,14,32,11.60
2015,04,15,14,33,11.60
2015,04,15,14,34,11.60
2015,04,15,14,35,11.70
2015,04,15,14,36,11.70
2015,04,15,14,37,11.70
2015,04,15,14,38,11.80
2015,04,15,14,39,11.80
2015,04,15,14,40,11.90
2015,04,15,14,41,11.90
2015,04,15,14,42,11.90
2015,04,15,14,43,12.00
2015,04,15,14,44,12.00
2015,04,15,14,45,12.10
2015,04,15,14,46,12.10
2015,04,15,14,47,12.20
2015,04,15,14,48,12.20
2015,04,15,14,49,12.20
2015,04,15,14,50,12.20
2015,04,15,14,51,12.20
2015,04,15,14,52,12.20
2015,04,15,14,53,12.20
2015,04,15,14,54,12.30
2015,04,15,14,55,12.30
2015,04,15,14,56,12.30
2015,04,15,14,57,12.30
2015,04,15,14,58,12.40
2015,04,15,14,59,12.40
2015,04,15,15,00,12.40
2015,04,15,15,01,12.30
2015,04,15,15,02,12.30
2015,04,15,15,03,12.20
2015,04,15,15,04,12.20
2015,04,15,15,05,12.10
2015,04,15,15,06,12.00
2015,04,15,15,07,11.90
2015,04,15,15,08,11.80
2015,04,15,15,09,11.70
2015,04,15,15,10,11.60
2015,04,15,15,11,11.60
2015,04,15,15,12,11.50
2015,04,15,15,13,11.50
2015,04,15,15,14,11.40
2015,04,15,15,15,11.40
2015,04,15,15,16,11.30
2015,04,15,15,17,11.30
2015,04,15,15,18,11.30
2015,04,15,15,19,11.30
2015,04,15,15,20,11.30
2015,04,15,15,21,11.30
2015,04,15,15,22,11.30
2015,04,15,15,23,11.30
2015,04,15,15,24,11.30
2015,04,15,15,25,11.30
2015,04,15,15,26,11.40
2015,04,15,15,27,11.40
2015,04,15,15,28,11.40
2015,04,15,15,29,11.40
2015,04,15,15,30,11.50
2015,04,15,15,31,11.50
2015,04,15,15,32,11.50
2015,04,15,15,33,11.50
2015,04,15,15,34,11.50
2015,04,15,15,35,11.50
2015,04,15,15,36,11.60
2015,04,15,15,37,11.60
2015,04,15,15,38,11.60
2015,04,15,15,39,11.70
2015,04,15,15,40,11.70
2015,04,15,15,41,11.70
2015,04,15,15,42,11.70
2015,04,15,15,43,11.70
2015,04,15,15,44,11.70
2015,04,15,15,45,11.70
2015,04,15,15,46,11.80
2015,04,15,15,47,11.80
2015,04,15,15,48,11.80
2015,04,15,15,49,11.80
2015,04,15,15,50,11.80
2015,04,15,15,51,11.80
2015,04,15,15,52,11.80
2015,04,15,15,53,11.80
2015,04,15,15,54,11.80
2015,04,15,15,55,11.80
2015,04,15,15,56,11.80
2015,04,15,15,57,11.80
2015,04,15,15,58,11.80
2015,04,15,15,59,11.80
2015,04,15,16,00,11.90
2015,04,15,16,01,11.90
2015,04,15,16,02,11.80
2015,04,15,16,03,11.80
2015,04,15,16,04,11.80
2015,04,15,16,05,11.80
2015,04,15,16,06,11.80
2015,04,15,16,07,11.80
2015,04,15,16,08,11.80
2015,04,15,16,09,11.80
2015,04,15,16,10,11.80
2015,04,15,16,11,11.80
2015,04,15,16,12,11.80
2015,04,15,16,13,11.80
2015,04,15,16,14,11.80
2015,04,15,16,15,11.80
2015,04,15,16,16,11.80
2015,04,15,16,17,11.80
2015,04,15,16,18,11.90
2015,04,15,16,19,11.90
2015,04,15,16,20,11.90
2015,04,15,16,21,11.80
2015,04,15,16,22,11.80
2015,04,15,16,23,11.90
2015,04,15,16,24,11.90
2015,04,15,16,25,11.90
2015,04,15,16,26,11.90
2015,04,15,16,27,12.00
2015,04,15,16,28,12.00
2015,04,15,16,29,12.10
2015,04,15,16,30,12.10
2015,04,15,16,31,12.20
2015,04,15,16,32,12.20
2015,04,15,16,33,12.20
2015,04,15,16,34,12.20
2015,04,15,16,35,12.10
2015,04,15,16,36,12.10
2015,04,15,16,37,12.10
2015,04,15,16,38,12.10
2015,04,15,16,39,12.00
2015,04,15,16,40,12.00
2015,04,15,16,41,12.10
2015,04,15,16,42,12.10
2015,04,15,16,43,12.10
2015,04,15,16,44,12.20
2015,04,15,16,45,12.20
2015,04,15,16,46,12.20
2015,04,15,16,47,12.30
2015,04,15,16,48,12.30
2015,04,15,16,49,12.30
2015,04,15,16,50,12.30
2015,04,15,16,51,12.30
2015,04,15,16,52,12.30
2015,04,15,16,53,12.30
2015,04,15,16,54,12.20
2015,04,15,16,55,12.20
2015,04,15,16,56,12.10
2015,04,15,16,57,12.10
2015,04,15,16,58,12.00
2015,04,15,16,59,12.00
2015,04,15,17,00,11.90
2015,04,15,17,01,11.90
2015,04,15,17,02,11.80
2015,04,15,17,03,11.80
2015,04,15,17,04,11.70
2015,04,15,17,05,11.60
2015,04,15,17,06,11.60
2015,04,15,17,07,11.50
2015,04,15,17,08,11.50
2015,04,15,17,09,11.50
2015,04,15,17,10,11.50
2015,04,15,17,11,11.50
2015,04,15,17,12,11.40
2015,04,15,17,13,11.40
2015,04,15,17,14,11.40
2015,04,15,17,15,11.40
2015,04,15,17,16,11.50
2015,04,15,17,17,11.50
2015,04,15,17,18,11.50
2015,04,15,17,19,11.60
2015,04,15,17,20,11.60
2015,04,15,17,21,11.70
2015,04,15,17,22,11.70
2015,04,15,17,23,11.80
2015,04,15,17,24,11.90
2015,04,15,17,25,11.90
2015,04,15,17,26,11.90
2015,04,15,17,27,11.90
2015,04,15,17,28,12.00
2015,04,15,17,29,12.00
2015,04,15,17,30,12.00
2015,04,15,17,31,12.00
2015,04,15,17,32,11.90
2015,04,15,17,33,11.90
2015,04,15,17,34,12.00
2015,04,15,17,35,12.00
2015,04,15,17,36,12.10
2015,04,15,17,37,12.10
2015,04,15,17,38,12.10
2015,04,15,17,39,12.20
2015,04,15,17,40,12.20
2015,04,15,17,41,12.20
2015,04,15,17,42,12.20
2015,04,15,17,43,12.20
2015,04,15,17,44,12.20